Weather History for West Yellowstone, MT

Change the Weather History Date:

Thursday, October 31, 2013

  Actual Average Record
Temperature  
Mean Temperature 28 °F -  
Max Temperature 32 °F 40 °F 59 °F (2014)
Min Temperature 24 °F 19 °F 23 °F (2012)
Degree Days  
Heating Degree Days 37    
Moisture  
Dew Point 26 °F    
Average Humidity 85    
Maximum Humidity 86    
Minimum Humidity 80    
Precipitation  
Precipitation 0.00 in - - ()
Sea Level Pressure  
Sea Level Pressure 30.01 in    
Wind  
Wind Speed 12 mph (SW)    
Max Wind Speed 24 mph    
Max Gust Speed 31 mph    
Visibility 6 miles    
Events Rain , Snow    
Averages and records for this station are not official NWS values.
T = Trace of Precipitation, MM = Missing Value Source: NWS Daily Summary

Daily Weather History Graph

Daily Weather History Graph

Search for Another Location

Airport:

Trip Planner

Search our weather history database for the weather conditions in past years. The results will help you decide how hot, cold, wet, or windy it might be!

Date:

Astronomy

Oct. 31, 2013 Rise Set
Actual Time 8:01 AM MDT 6:14 PM MDT
Civil Twilight 7:30 AM MDT 6:44 PM MDT
Nautical Twilight 6:56 AM MDT 7:18 PM MDT
Astronomical Twilight 6:22 AM MDT 7:52 PM MDT
Moon 4:47 AM MDT (10/31) 4:39 PM MDT (10/31)
Length of Visible Light 11h 13m
Length of Day
10h 12m
Waning Crescent, 9% of the Moon is Illuminated
Oct 31
Waning Crescent
Nov 3
New
Nov 9
First Quarter
Nov 17
Full
Nov 25
Last Quarter

Hourly Weather History & Observations

Time (MDT) Temp. Windchill Dew Point Humidity Pressure Visibility Wind Dir Wind Speed Gust Speed Precip Events Conditions
12:10 AM 30.2 °F 20.8 °F 26.6 °F 86% 29.99 in 9.0 mi SSW 11.5 mph 18.4 mph N/A   Overcast
12:30 AM 30.2 °F 20.2 °F 26.6 °F 86% 29.99 in 10.0 mi SSW 12.7 mph 18.4 mph N/A   Overcast
12:50 AM 32.0 °F 22.5 °F 26.6 °F 80% 29.98 in 10.0 mi SSW 12.7 mph 17.3 mph N/A   Overcast
1:10 AM 30.2 °F 20.8 °F 26.6 °F 86% 29.98 in 10.0 mi SW 11.5 mph 18.4 mph N/A   Overcast
1:30 AM 30.2 °F 20.8 °F 26.6 °F 86% 29.98 in 10.0 mi SSW 11.5 mph - N/A   Overcast
1:50 AM 30.2 °F 20.8 °F 26.6 °F 86% 29.98 in 10.0 mi SSW 11.5 mph 17.3 mph N/A   Overcast
2:10 AM 30.2 °F 19.8 °F 26.6 °F 86% 29.98 in 10.0 mi SSW 13.8 mph - N/A   Overcast
2:30 AM 30.2 °F 21.3 °F 26.6 °F 86% 29.98 in 10.0 mi SSW 10.4 mph 18.4 mph N/A   Overcast
2:50 AM 30.2 °F 19.8 °F 26.6 °F 86% 29.98 in 9.0 mi SW 13.8 mph - N/A   Overcast
3:10 AM 28.4 °F 17.5 °F 24.8 °F 86% 29.99 in 2.0 mi SW 13.8 mph 19.6 mph N/A   Overcast
3:30 AM 28.4 °F 18.5 °F 24.8 °F 86% 29.99 in 2.5 mi SW 11.5 mph 17.3 mph N/A   Overcast
3:50 AM 28.4 °F 19.1 °F 24.8 °F 86% 29.98 in 5.0 mi SW 10.4 mph - N/A   Overcast
4:10 AM 28.4 °F 18.0 °F 24.8 °F 86% 29.99 in 2.0 mi SSW 12.7 mph 17.3 mph N/A   Overcast
4:30 AM 28.4 °F 18.5 °F 24.8 °F 86% 29.99 in 5.0 mi SSW 11.5 mph - N/A   Overcast
4:50 AM 28.4 °F 18.5 °F 24.8 °F 86% 29.99 in 3.0 mi SSW 11.5 mph - N/A   Overcast
5:10 AM 28.4 °F 18.0 °F 24.8 °F 86% 29.98 in 3.0 mi SSW 12.7 mph 18.4 mph N/A   Overcast
5:30 AM 28.4 °F 18.0 °F 24.8 °F 86% 30.00 in 1.8 mi SSW 12.7 mph 17.3 mph N/A   Overcast
5:50 AM 28.4 °F 18.5 °F 24.8 °F 86% 30.00 in 2.0 mi SW 11.5 mph 18.4 mph N/A   Overcast
6:10 AM 28.4 °F 18.0 °F 24.8 °F 86% 30.00 in 1.2 mi SSW 12.7 mph - N/A   Overcast
6:30 AM 28.4 °F 18.0 °F 24.8 °F 86% 30.00 in 1.8 mi SW 12.7 mph 20.7 mph N/A   Overcast
6:50 AM 28.4 °F 17.0 °F 24.8 °F 86% 30.01 in 3.0 mi SW 15.0 mph 19.6 mph N/A   Overcast
7:10 AM 28.4 °F 17.0 °F 24.8 °F 86% 30.00 in 3.0 mi SW 15.0 mph 20.7 mph N/A   Overcast
7:30 AM 28.4 °F 16.2 °F 24.8 °F 86% 30.01 in 2.5 mi SW 17.3 mph 20.7 mph N/A   Overcast
7:50 AM 28.4 °F 18.5 °F 24.8 °F 86% 30.02 in 2.0 mi SSW 11.5 mph 18.4 mph N/A   Overcast
8:10 AM 28.4 °F 18.5 °F 24.8 °F 86% 30.03 in 1.5 mi SW 11.5 mph 19.6 mph N/A   Overcast
8:30 AM 28.4 °F 18.0 °F 24.8 °F 86% 30.03 in 1.5 mi SW 12.7 mph 17.3 mph N/A   Overcast
8:50 AM 28.4 °F 18.0 °F 24.8 °F 86% 30.03 in 4.0 mi SW 12.7 mph 21.9 mph N/A   Overcast
9:10 AM 28.4 °F 17.5 °F 24.8 °F 86% 30.04 in 5.0 mi SW 13.8 mph 18.4 mph N/A   Overcast
9:30 AM 28.4 °F 18.5 °F 24.8 °F 86% 30.04 in 0.8 mi SW 11.5 mph 24.2 mph N/A   Overcast
9:50 AM 28.4 °F 18.5 °F 24.8 °F 86% 30.04 in 2.5 mi SW 11.5 mph 17.3 mph N/A   Overcast
10:10 AM 28.4 °F 19.1 °F 24.8 °F 86% 30.04 in 5.0 mi SSW 10.4 mph 17.3 mph N/A   Overcast
10:30 AM 28.4 °F 17.0 °F 24.8 °F 86% 30.03 in 9.0 mi SW 15.0 mph 24.2 mph N/A   Overcast
10:50 AM 28.4 °F 17.0 °F 24.8 °F 86% 30.02 in 9.0 mi SW 15.0 mph 23.0 mph N/A   Overcast
11:10 AM 28.4 °F 16.6 °F 24.8 °F 86% 30.04 in 4.0 mi SW 16.1 mph 24.2 mph N/A   Overcast
11:30 AM 30.2 °F 20.8 °F 26.6 °F 86% 30.05 in 0.8 mi SW 11.5 mph 19.6 mph N/A Snow Light Snow
11:50 AM 30.2 °F 19.8 °F 26.6 °F 86% 30.03 in 2.5 mi SSW 13.8 mph - N/A Snow Light Snow
12:10 PM 30.2 °F 20.2 °F 26.6 °F 86% 30.03 in 7.0 mi SW 12.7 mph 20.7 mph N/A Rain Light Freezing Rain
12:30 PM 30.2 °F 18.9 °F 26.6 °F 86% 30.03 in 6.0 mi SW 16.1 mph 23.0 mph N/A   Overcast
12:50 PM 30.2 °F 19.8 °F 26.6 °F 86% 30.03 in 1.2 mi SW 13.8 mph 21.9 mph N/A Snow Light Snow
1:10 PM 30.2 °F 18.9 °F 26.6 °F 86% 30.02 in 0.8 mi SW 16.1 mph 24.2 mph N/A Snow Light Snow
1:30 PM 30.2 °F 20.2 °F 26.6 °F 86% 30.01 in 1.8 mi SSW 12.7 mph 25.3 mph N/A   Scattered Clouds
1:50 PM 30.2 °F 18.9 °F 26.6 °F 86% 30.00 in 2.5 mi SW 16.1 mph 25.3 mph N/A Rain Light Freezing Rain
2:10 PM 30.2 °F 19.8 °F 26.6 °F 86% 29.99 in 2.0 mi SW 13.8 mph 18.4 mph N/A Snow Light Snow
2:30 PM 32.0 °F 23.0 °F 26.6 °F 80% 29.99 in 3.0 mi West 11.5 mph 23.0 mph N/A Snow Light Snow
2:50 PM 30.2 °F 18.9 °F 26.6 °F 86% 29.98 in 5.0 mi SSW 16.1 mph 20.7 mph N/A Snow Light Snow
3:10 PM 32.0 °F 20.1 °F 26.6 °F 80% 29.98 in 10.0 mi SW 19.6 mph 25.3 mph N/A   Overcast
3:30 PM 32.0 °F 18.9 °F 26.6 °F 80% 29.97 in 10.0 mi SSW 24.2 mph 31.1 mph N/A   Overcast
3:50 PM 30.2 °F 19.8 °F 26.6 °F 86% 29.98 in 2.0 mi SW 13.8 mph 29.9 mph N/A Rain Light Freezing Rain
4:10 PM 30.2 °F 20.2 °F 26.6 °F 86% 29.98 in 1.0 mi SW 12.7 mph 20.7 mph N/A   Mostly Cloudy
4:30 PM 30.2 °F 20.2 °F 26.6 °F 86% 29.98 in 1.5 mi SW 12.7 mph 20.7 mph N/A Snow Light Snow
4:50 PM 30.2 °F 18.9 °F 26.6 °F 86% 29.98 in 2.0 mi SSW 16.1 mph 23.0 mph N/A Snow Light Snow
5:10 PM 32.0 °F 20.8 °F 26.6 °F 80% 29.96 in 10.0 mi SSW 17.3 mph 26.5 mph N/A   Mostly Cloudy
5:30 PM 32.0 °F 22.5 °F 26.6 °F 80% 29.95 in 10.0 mi SW 12.7 mph 26.5 mph N/A   Mostly Cloudy
5:50 PM 30.2 °F 21.3 °F 26.6 °F 86% 29.95 in 10.0 mi SW 10.4 mph 23.0 mph N/A   Mostly Cloudy
6:10 PM 32.0 °F 23.6 °F 26.6 °F 80% 29.96 in 10.0 mi SW 10.4 mph 16.1 mph N/A   Mostly Cloudy
6:30 PM 32.0 °F 23.6 °F 26.6 °F 80% 29.97 in 10.0 mi SW 10.4 mph - N/A   Overcast
6:50 PM 32.0 °F 23.0 °F 26.6 °F 80% 29.98 in 9.0 mi SSW 11.5 mph 18.4 mph N/A   Mostly Cloudy
7:10 PM 32.0 °F 22.5 °F 26.6 °F 80% 29.99 in 4.0 mi SW 12.7 mph - N/A   Scattered Clouds
7:30 PM 30.2 °F 20.2 °F 26.6 °F 86% 29.99 in 9.0 mi SSW 12.7 mph - N/A   Mostly Cloudy
7:50 PM 30.2 °F 21.3 °F 26.6 °F 86% 30.00 in 4.0 mi SW 10.4 mph 17.3 mph N/A Snow Light Snow
8:10 PM 30.2 °F 23.4 °F 26.6 °F 86% 30.00 in 3.0 mi SW 6.9 mph - N/A Snow Light Snow
8:30 PM 30.2 °F 25.4 °F 26.6 °F 86% 30.01 in 10.0 mi WSW 4.6 mph - N/A Snow Light Snow
8:50 PM 28.4 °F 23.3 °F 24.8 °F 86% 30.02 in 10.0 mi ENE 4.6 mph - N/A   Mostly Cloudy
9:10 PM 28.4 °F - 24.8 °F 86% 30.03 in 10.0 mi Calm Calm - N/A Snow Light Snow
9:30 PM 28.4 °F - 24.8 °F 86% 30.04 in 10.0 mi Calm Calm - N/A   Overcast
9:50 PM 28.4 °F 22.2 °F 24.8 °F 86% 30.04 in 10.0 mi SSE 5.8 mph - N/A   Overcast
10:10 PM 28.4 °F 23.3 °F 24.8 °F 86% 30.05 in 10.0 mi SW 4.6 mph - N/A   Overcast
10:30 PM 28.4 °F 22.2 °F 24.8 °F 86% 30.06 in 10.0 mi WSW 5.8 mph - N/A   Mostly Cloudy
10:50 PM 26.6 °F - 23.0 °F 86% 30.07 in 10.0 mi Calm Calm - N/A   Partly Cloudy
11:10 PM 26.6 °F 22.6 °F 23.0 °F 86% 30.07 in 10.0 mi SW 3.5 mph - N/A   Partly Cloudy
11:30 PM 24.8 °F 20.5 °F 21.2 °F 86% 30.08 in 10.0 mi NE 3.5 mph - N/A   Partly Cloudy
11:50 PM 24.8 °F - 19.4 °F 80% 30.08 in 1.0 mi Calm Calm - N/A   Overcast